contact:dominique.lefevre@mio.osupytheas.fr, maurice.libes@osupytheas.fr, didier.mallarino@osupytheas.fr
Project:EMSO http://www.emso-fr.org/EMSO-France
Depth: 2436.0 m
Title:EMSO Ligure Ouest : Data MII capteur AQUADOPP
Date,Latitude,Longitude,X_East,Y_North,Z_Up,Amplitude_X,Amplitude_Y,Amplitude_Z,Batterie,SoundSpeed,Heading,Pitch,Roll,Pressure,TIS,Speed,Direction
, degrees North, degrees East, m.s-1, m.s-1,m.s-1, 1, 1, 1, Volt, m.s-1, degree, degree, degree, dbar, degree_C, m.s-1, degree
2023-04-24T00:04:02,42.805,6.029,-0.048,0.015,-0.033,103.0,103.0,103.0,13.3,1505.2,321.3,-0.8,1.8,2471.429,13.28,0.05,287.4
2023-04-24T00:07:03,42.805,6.029,-0.036,0.0,-0.007,105.0,103.0,103.0,13.4,1505.2,319.1,-0.8,1.8,2471.477,13.28,0.036,270.0
2023-04-24T00:10:03,42.805,6.029,-0.053,-0.002,-0.054,105.0,101.0,102.0,13.3,1505.2,323.6,-0.8,1.8,2471.435,13.29,0.053,267.8
2023-04-24T00:13:03,42.805,6.029,-0.048,0.007,-0.031,105.0,103.0,101.0,13.4,1505.2,333.9,-0.8,1.8,2471.446,13.29,0.048,278.3
2023-04-24T00:16:03,42.805,6.029,-0.064,0.022,-0.021,103.0,102.0,102.0,13.4,1505.2,335.4,-0.8,1.8,2471.399,13.29,0.067,289.0
2023-04-24T00:19:03,42.805,6.029,-0.07,0.033,-0.03,104.0,103.0,102.0,13.4,1505.2,332.9,-0.8,1.8,2471.43,13.29,0.077,295.2
2023-04-24T00:22:03,42.805,6.029,-0.084,0.0,-0.014,104.0,103.0,101.0,13.4,1505.2,315.0,-0.8,1.8,2471.385,13.29,0.083,270.0
2023-04-24T00:25:03,42.805,6.029,-0.049,0.015,-0.016,104.0,103.0,102.0,13.4,1505.2,330.8,-0.7,1.8,2471.396,13.29,0.051,287.0
2023-04-24T00:28:03,42.805,6.029,-0.061,-0.016,-0.04,105.0,103.0,102.0,13.4,1505.2,326.6,-0.8,1.8,2471.411,13.29,0.063,255.3
2023-04-24T00:31:03,42.805,6.029,-0.066,0.003,-0.031,105.0,103.0,103.0,13.4,1505.2,323.5,-0.8,1.9,2471.411,13.29,0.066,272.6
2023-04-24T00:34:03,42.805,6.029,-0.071,-0.018,-0.029,102.0,104.0,101.0,13.3,1505.2,313.7,-0.8,1.8,2471.442,13.29,0.073,255.8
2023-04-24T00:37:03,42.805,6.029,-0.087,0.009,-0.034,103.0,104.0,102.0,13.3,1505.2,336.6,-0.8,1.8,2471.41,13.29,0.087,275.9
2023-04-24T00:40:03,42.805,6.029,-0.051,0.011,0.003,103.0,103.0,102.0,13.4,1505.2,324.1,-0.8,1.8,2471.393,13.29,0.052,282.2
2023-04-24T00:43:03,42.805,6.029,-0.059,-0.019,-0.04,103.0,103.0,103.0,13.4,1505.2,319.2,-0.8,1.8,2471.384,13.29,0.061,252.2
2023-04-24T00:46:03,42.805,6.029,-0.061,0.005,-0.059,104.0,103.0,102.0,13.4,1505.2,321.9,-0.7,1.8,2471.397,13.29,0.061,274.7
2023-04-24T00:49:03,42.805,6.029,-0.033,-0.02,-0.024,104.0,103.0,102.0,13.4,1505.2,325.3,-0.8,1.8,2471.413,13.29,0.038,238.8
2023-04-24T00:52:03,42.805,6.029,-0.041,-0.003,-0.008,104.0,103.0,102.0,13.4,1505.2,333.4,-0.8,1.8,2471.345,13.29,0.041,265.8
2023-04-24T00:55:03,42.805,6.029,-0.044,0.002,-0.007,103.0,103.0,103.0,13.4,1505.2,333.4,-0.8,1.8,2471.382,13.29,0.044,272.6
2023-04-24T00:58:03,42.805,6.029,-0.056,-0.003,-0.036,103.0,104.0,102.0,13.4,1505.2,333.4,-0.8,1.8,2471.394,13.29,0.056,266.9
2023-04-24T01:04:03,42.805,6.029,-0.042,0.037,0.007,105.0,104.0,102.0,13.4,1505.2,332.9,-0.8,1.8,2471.417,13.28,0.055,311.4
2023-04-24T01:07:03,42.805,6.029,-0.086,0.002,-0.039,103.0,103.0,102.0,13.3,1505.2,325.5,-0.8,1.8,2471.432,13.28,0.086,271.3
2023-04-24T01:10:03,42.805,6.029,-0.062,0.001,-0.048,103.0,104.0,102.0,13.4,1505.2,330.2,-0.7,1.8,2471.388,13.28,0.062,270.9
2023-04-24T01:13:03,42.805,6.029,-0.071,0.006,-0.044,101.0,102.0,102.0,13.4,1505.2,325.0,-0.8,1.8,2471.432,13.28,0.071,274.8
2023-04-24T01:16:03,42.805,6.029,-0.068,-0.026,-0.059,104.0,102.0,102.0,13.3,1505.2,316.8,-0.8,1.8,2471.412,13.29,0.072,249.1
2023-04-24T01:19:03,42.805,6.029,-0.05,-0.016,-0.062,103.0,102.0,102.0,13.4,1505.2,317.3,-0.8,1.8,2471.41,13.29,0.052,252.3
2023-04-24T01:22:03,42.805,6.029,-0.049,-0.024,-0.022,103.0,103.0,101.0,13.4,1505.2,322.9,-0.8,1.8,2471.399,13.29,0.054,243.9
2023-04-24T01:25:03,42.805,6.029,-0.044,0.002,-0.04,105.0,103.0,101.0,13.3,1505.2,336.3,-0.7,1.8,2471.411,13.29,0.044,272.6
2023-04-24T01:28:03,42.805,6.029,-0.062,0.003,-0.071,102.0,102.0,102.0,13.4,1505.2,331.9,-0.8,1.8,2471.396,13.29,0.062,272.8
2023-04-24T01:31:03,42.805,6.029,-0.051,0.002,-0.053,103.0,104.0,101.0,13.4,1505.2,341.2,-0.8,1.9,2471.379,13.29,0.051,272.2
2023-04-24T01:34:03,42.805,6.029,-0.053,-0.003,-0.026,103.0,103.0,102.0,13.3,1505.2,319.2,-0.8,1.8,2471.377,13.29,0.053,266.8
2023-04-24T01:37:03,42.805,6.029,-0.061,0.011,-0.071,105.0,103.0,100.0,13.3,1505.2,329.3,-0.8,1.8,2471.363,13.29,0.061,280.2
2023-04-24T01:40:03,42.805,6.029,-0.056,0.022,-0.061,103.0,103.0,102.0,13.4,1505.2,335.3,-0.7,1.8,2471.424,13.29,0.06,291.4
2023-04-24T01:43:03,42.805,6.029,-0.041,0.003,-0.024,103.0,104.0,102.0,13.4,1505.2,334.9,-0.8,1.8,2471.369,13.29,0.041,274.2
2023-04-24T01:46:03,42.805,6.029,-0.054,0.002,-0.014,103.0,102.0,103.0,13.3,1505.2,330.0,-0.8,1.8,2471.386,13.29,0.054,272.1
2023-04-24T01:49:03,42.805,6.029,-0.041,0.035,-0.029,103.0,102.0,101.0,13.3,1505.2,331.9,-0.8,1.8,2471.374,13.29,0.053,310.5
2023-04-24T01:52:03,42.805,6.029,-0.066,0.005,-0.036,103.0,103.0,102.0,13.4,1505.2,322.2,-0.8,1.8,2471.366,13.29,0.066,274.3
2023-04-24T01:55:03,42.805,6.029,-0.044,0.016,-0.007,103.0,103.0,102.0,13.4,1505.2,342.2,-0.8,1.8,2471.352,13.29,0.046,290.0
2023-04-24T01:58:03,42.805,6.029,-0.062,-0.009,-0.069,105.0,104.0,102.0,13.4,1505.2,338.5,-0.8,1.8,2471.341,13.29,0.062,261.7
2023-04-24T02:04:03,42.805,6.029,-0.046,-0.001,-0.06,102.0,102.0,102.0,13.4,1505.2,328.8,-0.8,1.8,2471.367,13.28,0.046,268.8
2023-04-24T02:07:03,42.805,6.029,-0.049,-0.015,-0.038,103.0,102.0,101.0,13.4,1505.2,319.1,-0.7,1.8,2471.39,13.28,0.051,253.0
2023-04-24T02:10:03,42.805,6.029,-0.065,-0.006,-0.028,102.0,104.0,102.0,13.4,1505.2,328.5,-0.8,1.8,2471.375,13.28,0.065,264.7
2023-04-24T02:13:03,42.805,6.029,-0.059,0.013,-0.052,104.0,101.0,101.0,13.3,1505.2,329.0,-0.8,1.8,2471.355,13.29,0.06,282.4
2023-04-24T02:16:03,42.805,6.029,-0.077,0.016,-0.066,102.0,104.0,103.0,13.4,1505.2,341.5,-0.8,1.8,2471.392,13.29,0.078,281.7
2023-04-24T02:19:03,42.805,6.029,-0.056,-0.012,-0.066,102.0,102.0,102.0,13.3,1505.2,324.0,-0.8,1.8,2471.375,13.29,0.057,257.9
2023-04-24T02:22:03,42.805,6.029,-0.047,-0.004,-0.02,104.0,103.0,101.0,13.3,1505.2,337.6,-0.8,1.8,2471.358,13.29,0.047,265.1
2023-04-24T02:25:03,42.805,6.029,-0.077,0.005,-0.033,102.0,102.0,101.0,13.4,1505.2,319.2,-0.8,1.8,2471.388,13.29,0.077,273.7
2023-04-24T02:28:03,42.805,6.029,-0.05,0.005,-0.041,103.0,103.0,100.0,13.4,1505.2,329.0,-0.8,1.8,2471.363,13.29,0.05,275.7
2023-04-24T02:31:03,42.805,6.029,-0.058,0.029,-0.017,102.0,102.0,101.0,13.4,1505.2,338.0,-0.8,1.8,2471.304,13.29,0.064,296.6
2023-04-24T02:34:03,42.805,6.029,-0.057,0.003,-0.011,101.0,104.0,102.0,13.4,1505.2,321.8,-0.8,1.8,2471.371,13.29,0.057,273.0
2023-04-24T02:37:03,42.805,6.029,-0.025,-0.004,-0.031,103.0,103.0,102.0,13.4,1505.2,329.1,-0.8,1.9,2471.379,13.29,0.025,260.9
2023-04-24T02:40:03,42.805,6.029,-0.052,-0.001,-0.049,103.0,102.0,102.0,13.4,1505.2,330.7,-0.8,1.8,2471.35,13.29,0.052,268.9
2023-04-24T02:43:03,42.805,6.029,-0.048,-0.029,-0.054,103.0,102.0,101.0,13.4,1505.2,321.0,-0.8,1.8,2471.334,13.29,0.056,238.9
2023-04-24T02:46:03,42.805,6.029,-0.048,-0.016,-0.031,103.0,104.0,101.0,13.3,1505.2,332.5,-0.8,1.8,2471.337,13.29,0.05,251.6
2023-04-24T02:49:03,42.805,6.029,-0.061,-0.01,-0.048,103.0,102.0,103.0,13.4,1505.2,322.6,-0.8,1.8,2471.318,13.29,0.061,260.7
2023-04-24T02:52:03,42.805,6.029,-0.051,0.006,-0.039,102.0,103.0,102.0,13.3,1505.2,324.6,-0.7,1.9,2471.333,13.29,0.051,276.7
2023-04-24T02:55:03,42.805,6.029,-0.027,-0.007,-0.028,103.0,102.0,103.0,13.3,1505.2,318.2,-0.7,1.9,2471.336,13.29,0.027,255.5
2023-04-24T02:58:03,42.805,6.029,-0.047,0.001,-0.029,104.0,102.0,102.0,13.4,1505.2,324.2,-0.7,1.8,2471.343,13.29,0.047,271.2
2023-04-24T03:04:03,42.805,6.029,-0.068,0.005,-0.069,103.0,102.0,102.0,13.4,1505.2,333.4,-0.8,1.8,2471.383,13.28,0.068,274.2
2023-04-24T03:07:03,42.805,6.029,-0.055,-0.003,-0.007,104.0,102.0,102.0,13.4,1505.2,336.5,-0.7,1.8,2471.398,13.28,0.055,266.9
2023-04-24T03:10:03,42.805,6.029,-0.037,0.006,-0.049,102.0,104.0,103.0,13.4,1505.2,334.4,-0.8,1.8,2471.365,13.29,0.037,279.2
2023-04-24T03:13:03,42.805,6.029,-0.024,-0.003,-0.008,103.0,102.0,102.0,13.4,1505.2,323.9,-0.8,1.8,2471.353,13.29,0.024,262.9
2023-04-24T03:16:03,42.805,6.029,-0.048,0.004,-0.026,104.0,102.0,101.0,13.4,1505.2,330.8,-0.7,1.8,2471.36,13.29,0.048,274.8
2023-04-24T03:19:03,42.805,6.029,-0.023,0.006,-0.02,103.0,104.0,103.0,13.4,1505.2,342.3,-0.8,1.8,2471.357,13.29,0.023,284.6
2023-04-24T03:22:03,42.805,6.029,-0.05,0.025,-0.028,105.0,103.0,102.0,13.4,1505.2,343.3,-0.7,1.8,2471.344,13.29,0.055,296.6
2023-04-24T03:25:03,42.805,6.029,-0.033,-0.019,-0.003,104.0,104.0,102.0,13.3,1505.2,330.1,-0.7,1.8,2471.355,13.29,0.038,240.1
2023-04-24T03:28:03,42.805,6.029,-0.028,-0.003,-0.024,104.0,103.0,102.0,13.4,1505.2,343.4,-0.7,1.8,2471.317,13.29,0.028,263.9
2023-04-24T03:31:03,42.805,6.029,-0.035,-0.015,-0.031,103.0,103.0,102.0,13.3,1505.2,338.8,-0.8,1.8,2471.306,13.29,0.038,246.8
2023-04-24T03:34:03,42.805,6.029,-0.043,0.0,-0.053,104.0,104.0,101.0,13.4,1505.2,337.1,-0.8,1.8,2471.321,13.29,0.043,270.0
2023-04-24T03:37:03,42.805,6.029,-0.049,0.005,-0.019,103.0,103.0,102.0,13.3,1505.2,313.6,-0.8,1.8,2471.324,13.29,0.049,275.8
2023-04-24T03:40:03,42.805,6.029,-0.061,0.002,-0.025,103.0,103.0,103.0,13.3,1505.2,326.6,-0.8,1.8,2471.328,13.29,0.061,271.9
2023-04-24T03:43:03,42.805,6.029,-0.056,-0.038,-0.047,103.0,101.0,101.0,13.4,1505.2,321.0,-0.7,1.8,2471.299,13.29,0.067,235.8
2023-04-24T03:46:03,42.805,6.029,-0.082,-0.014,-0.036,104.0,104.0,101.0,13.4,1505.2,333.4,-0.7,1.8,2471.302,13.29,0.083,260.3
2023-04-24T03:49:03,42.805,6.029,-0.053,0.0,-0.068,103.0,102.0,102.0,13.4,1505.2,326.5,-0.8,1.9,2471.312,13.29,0.053,270.0
2023-04-24T03:52:03,42.805,6.029,-0.069,-0.001,-0.066,103.0,102.0,102.0,13.3,1505.2,327.0,-0.8,1.8,2471.294,13.29,0.069,269.2
2023-04-24T03:55:03,42.805,6.029,-0.047,0.007,-0.031,103.0,103.0,101.0,13.3,1505.2,332.9,-0.7,1.9,2471.311,13.29,0.047,278.5
2023-04-24T03:58:03,42.805,6.029,-0.083,-0.002,-0.024,103.0,103.0,103.0,13.3,1505.2,324.6,-0.8,1.8,2471.31,13.29,0.083,268.6
2023-04-24T04:04:03,42.805,6.029,-0.04,-0.001,-0.006,103.0,102.0,102.0,13.3,1505.2,326.3,-0.8,1.8,2471.374,13.28,0.04,268.6
2023-04-24T04:07:03,42.805,6.029,-0.045,-0.025,-0.015,104.0,103.0,103.0,13.4,1505.2,326.8,-0.8,1.8,2471.343,13.28,0.051,240.9
2023-04-24T04:10:03,42.805,6.029,-0.059,-0.04,-0.071,104.0,102.0,102.0,13.4,1505.2,318.4,-0.8,1.8,2471.351,13.28,0.071,235.9
2023-04-24T04:13:03,42.805,6.029,-0.045,-0.034,-0.027,103.0,102.0,101.0,13.4,1505.2,328.4,-0.8,1.8,2471.307,13.28,0.056,232.9
2023-04-24T04:16:03,42.805,6.029,-0.066,0.012,-0.028,103.0,102.0,102.0,13.4,1505.2,326.3,-0.8,1.8,2471.303,13.29,0.067,280.3
2023-04-24T04:19:03,42.805,6.029,-0.05,-0.041,-0.086,104.0,103.0,102.0,13.3,1505.2,332.9,-0.8,1.8,2471.324,13.29,0.064,230.7
2023-04-24T04:22:03,42.805,6.029,-0.055,0.0,-0.034,105.0,103.0,101.0,13.4,1505.2,334.2,-0.8,1.8,2471.287,13.29,0.055,270.0
2023-04-24T04:25:03,42.805,6.029,-0.046,-0.011,-0.046,104.0,101.0,103.0,13.3,1505.2,340.4,-0.7,1.8,2471.291,13.29,0.047,256.6
2023-04-24T04:28:03,42.805,6.029,-0.031,-0.008,-0.042,104.0,102.0,101.0,13.3,1505.2,318.2,-0.8,1.8,2471.313,13.29,0.032,255.5
2023-04-24T04:31:03,42.805,6.029,-0.041,-0.008,-0.013,104.0,103.0,103.0,13.3,1505.2,332.4,-0.7,1.8,2471.341,13.29,0.041,259.0
2023-04-24T04:34:03,42.805,6.029,-0.031,0.009,-0.015,103.0,102.0,103.0,13.4,1505.2,343.3,-0.7,1.8,2471.303,13.29,0.032,286.2
2023-04-24T04:37:03,42.805,6.029,-0.068,0.009,-0.044,103.0,102.0,101.0,13.4,1505.2,340.2,-0.8,1.8,2471.282,13.29,0.068,277.5
2023-04-24T04:40:03,42.805,6.029,-0.039,-0.008,-0.021,104.0,102.0,102.0,13.4,1505.2,322.4,-0.7,1.8,2471.28,13.29,0.039,258.4
2023-04-24T04:43:03,42.805,6.029,-0.065,-0.005,-0.066,103.0,103.0,102.0,13.3,1505.2,330.1,-0.8,1.8,2471.282,13.29,0.065,265.6
2023-04-24T04:46:03,42.805,6.029,-0.049,-0.037,-0.069,102.0,102.0,103.0,13.4,1505.2,331.8,-0.7,1.8,2471.301,13.29,0.061,232.9
2023-04-24T04:49:03,42.805,6.029,-0.033,-0.008,-0.043,103.0,102.0,102.0,13.4,1505.2,334.2,-0.8,1.8,2471.288,13.29,0.033,256.4
2023-04-24T04:52:03,42.805,6.029,-0.05,-0.011,-0.054,103.0,102.0,102.0,13.4,1505.2,322.6,-0.8,1.8,2471.315,13.29,0.051,257.6
2023-04-24T04:55:03,42.805,6.029,-0.054,0.003,-0.01,104.0,102.0,102.0,13.4,1505.2,345.4,-0.8,1.8,2471.285,13.29,0.054,273.2
2023-04-24T04:58:03,42.805,6.029,-0.055,-0.015,-0.041,104.0,103.0,102.0,13.4,1505.2,328.7,-0.8,1.8,2471.308,13.29,0.057,254.7
2023-04-24T05:04:03,42.805,6.029,-0.064,0.005,-0.022,104.0,103.0,102.0,13.3,1505.2,341.5,-0.8,1.8,2471.312,13.28,0.064,274.5
2023-04-24T05:07:03,42.805,6.029,-0.046,-0.022,-0.05,104.0,102.0,102.0,13.4,1505.2,317.5,-0.8,1.8,2471.335,13.28,0.05,244.4
2023-04-24T05:10:03,42.805,6.029,-0.021,-0.008,-0.009,104.0,102.0,102.0,13.4,1505.2,315.0,-0.8,1.8,2471.346,13.28,0.022,249.1
2023-04-24T05:13:03,42.805,6.029,-0.046,-0.035,-0.075,103.0,102.0,104.0,13.4,1505.2,325.8,-0.8,1.8,2471.334,13.29,0.057,232.7
2023-04-24T05:16:03,42.805,6.029,-0.041,-0.014,-0.023,104.0,103.0,103.0,13.4,1505.2,329.5,-0.8,1.8,2471.328,13.29,0.043,251.1
2023-04-24T05:19:03,42.805,6.029,-0.062,-0.02,-0.046,103.0,103.0,103.0,13.4,1505.2,325.4,-0.8,1.8,2471.33,13.29,0.065,252.1
2023-04-24T05:22:03,42.805,6.029,-0.04,-0.027,-0.055,103.0,101.0,103.0,13.4,1505.2,329.8,-0.7,1.8,2471.311,13.29,0.048,236.0
2023-04-24T05:25:03,42.805,6.029,-0.024,0.003,-0.027,104.0,103.0,101.0,13.4,1505.2,327.0,-0.7,1.8,2471.303,13.29,0.024,277.1
2023-04-24T05:28:03,42.805,6.029,-0.048,-0.008,-0.046,104.0,103.0,102.0,13.4,1505.2,335.9,-0.8,1.8,2471.326,13.29,0.048,260.5
2023-04-24T05:31:03,42.805,6.029,-0.043,-0.019,-0.05,103.0,104.0,101.0,13.4,1505.2,328.8,-0.8,1.8,2471.324,13.29,0.047,246.2
2023-04-24T05:34:03,42.805,6.029,-0.063,-0.006,-0.071,103.0,102.0,102.0,13.3,1505.2,317.4,-0.8,1.8,2471.286,13.29,0.063,264.6
2023-04-24T05:37:03,42.805,6.029,-0.037,-0.01,-0.018,103.0,103.0,102.0,13.4,1505.2,313.6,-0.7,1.8,2471.329,13.29,0.038,254.9
2023-04-24T05:40:03,42.805,6.029,-0.045,-0.013,-0.008,105.0,104.0,101.0,13.4,1505.2,316.3,-0.8,1.8,2471.311,13.29,0.046,253.9
2023-04-24T05:43:03,42.805,6.029,-0.043,-0.018,-0.025,104.0,105.0,101.0,13.3,1505.2,324.4,-0.8,1.8,2471.305,13.29,0.046,247.3
2023-04-24T05:46:03,42.805,6.029,-0.04,-0.034,-0.037,103.0,104.0,102.0,13.3,1505.2,339.3,-0.7,1.8,2471.323,13.29,0.052,229.6
2023-04-24T05:49:03,42.805,6.029,-0.028,-0.028,-0.036,104.0,104.0,102.0,13.4,1505.2,322.9,-0.8,1.8,2471.358,13.29,0.039,225.0
2023-04-24T05:52:03,42.805,6.029,-0.045,-0.023,-0.047,104.0,102.0,102.0,13.4,1505.2,326.0,-0.8,1.8,2471.31,13.29,0.05,242.9
2023-04-24T05:55:03,42.805,6.029,-0.045,-0.024,-0.029,102.0,104.0,102.0,13.4,1505.2,338.8,-0.8,1.8,2471.328,13.29,0.051,241.9
2023-04-24T05:58:03,42.805,6.029,-0.052,-0.006,-0.004,103.0,103.0,102.0,13.3,1505.2,332.5,-0.8,1.8,2471.301,13.29,0.052,263.4
2023-04-24T06:04:03,42.805,6.029,-0.037,-0.014,-0.006,104.0,102.0,102.0,13.4,1505.2,333.8,-0.8,1.8,2471.371,13.28,0.039,249.3
2023-04-24T06:07:03,42.805,6.029,-0.038,-0.022,-0.018,104.0,103.0,102.0,13.4,1505.2,315.6,-0.8,1.8,2471.343,13.28,0.043,239.9
2023-04-24T06:10:03,42.805,6.029,-0.034,-0.034,-0.007,105.0,102.0,104.0,13.4,1505.2,315.7,-0.8,1.8,2471.35,13.28,0.048,225.0
2023-04-24T06:13:03,42.805,6.029,-0.032,-0.033,0.006,103.0,102.0,101.0,13.4,1505.2,321.3,-0.7,1.8,2471.361,13.29,0.045,224.1
2023-04-24T06:16:03,42.805,6.029,-0.047,-0.016,-0.073,105.0,103.0,102.0,13.4,1505.2,322.5,-0.8,1.8,2471.354,13.29,0.049,251.2
2023-04-24T06:19:03,42.805,6.029,-0.045,0.0,-0.035,102.0,104.0,102.0,13.4,1505.2,338.4,-0.7,1.8,2471.356,13.29,0.045,270.0
2023-04-24T06:22:03,42.805,6.029,-0.057,-0.025,-0.034,104.0,103.0,101.0,13.3,1505.2,324.0,-0.8,1.8,2471.332,13.29,0.062,246.3
2023-04-24T06:25:03,42.805,6.029,-0.034,-0.016,-0.044,104.0,103.0,102.0,13.3,1505.2,332.9,-0.8,1.8,2471.396,13.29,0.037,244.8
2023-04-24T06:28:03,42.805,6.029,-0.057,-0.027,-0.06,102.0,102.0,102.0,13.4,1505.2,332.4,-0.8,1.8,2471.326,13.29,0.063,244.7
2023-04-24T06:31:03,42.805,6.029,-0.043,-0.03,-0.005,103.0,103.0,103.0,13.3,1505.2,324.4,-0.8,1.8,2471.379,13.29,0.052,235.1
2023-04-24T06:34:03,42.805,6.029,-0.02,-0.029,-0.025,105.0,103.0,102.0,13.4,1505.2,327.6,-0.7,1.8,2471.343,13.29,0.035,214.6
2023-04-24T06:37:03,42.805,6.029,-0.06,-0.002,-0.027,103.0,103.0,102.0,13.4,1505.2,332.9,-0.7,1.8,2471.335,13.29,0.06,268.1
2023-04-24T06:40:03,42.805,6.029,-0.05,-0.013,-0.025,104.0,104.0,103.0,13.4,1505.2,326.3,-0.7,1.9,2471.363,13.29,0.051,255.4
2023-04-24T06:43:03,42.805,6.029,-0.049,-0.011,-0.034,104.0,103.0,102.0,13.4,1505.2,340.5,-0.8,1.8,2471.324,13.29,0.05,257.3
2023-04-24T06:46:03,42.805,6.029,-0.037,-0.034,-0.037,104.0,103.0,102.0,13.4,1505.2,319.1,-0.7,1.8,2471.335,13.29,0.05,227.4
2023-04-24T06:49:03,42.805,6.029,-0.005,-0.01,-0.026,105.0,102.0,102.0,13.4,1505.2,325.7,-0.7,1.8,2471.317,13.29,0.011,206.6
2023-04-24T06:52:03,42.805,6.029,-0.046,-0.011,-0.036,103.0,103.0,102.0,13.3,1505.2,334.9,-0.8,1.9,2471.357,13.29,0.047,256.6
2023-04-24T06:55:03,42.805,6.029,-0.033,-0.018,-0.022,104.0,103.0,102.0,13.4,1505.2,324.5,-0.7,1.8,2471.365,13.29,0.037,241.4
2023-04-24T06:58:03,42.805,6.029,-0.038,-0.019,-0.068,103.0,102.0,103.0,13.4,1505.2,321.7,-0.7,1.8,2471.342,13.29,0.042,243.4
2023-04-24T07:04:03,42.805,6.029,-0.048,-0.029,-0.053,105.0,102.0,101.0,13.3,1505.2,326.5,-0.8,1.8,2471.352,13.28,0.056,238.9
2023-04-24T07:07:03,42.805,6.029,-0.058,-0.043,-0.031,103.0,102.0,102.0,13.4,1505.2,315.0,-0.7,1.8,2471.398,13.28,0.072,233.4
2023-04-24T07:10:03,42.805,6.029,-0.029,-0.027,-0.048,104.0,102.0,101.0,13.3,1505.2,336.0,-0.8,1.8,2471.407,13.28,0.039,227.0
2023-04-24T07:13:03,42.805,6.029,-0.036,-0.027,-0.001,104.0,103.0,102.0,13.3,1505.2,321.0,-0.8,1.8,2471.388,13.29,0.045,233.1
2023-04-24T07:16:03,42.805,6.029,-0.033,-0.031,-0.038,103.0,102.0,102.0,13.4,1505.2,339.5,-0.8,1.8,2471.385,13.29,0.045,226.8
2023-04-24T07:19:03,42.805,6.029,-0.058,-0.033,-0.046,105.0,102.0,101.0,13.3,1505.2,328.2,-0.8,1.8,2471.382,13.29,0.066,240.4
2023-04-24T07:22:03,42.805,6.029,-0.024,-0.041,-0.035,104.0,103.0,102.0,13.4,1505.2,322.6,-0.8,1.8,2471.332,13.29,0.047,210.3
2023-04-24T07:25:03,42.805,6.029,-0.043,-0.029,-0.042,103.0,103.0,102.0,13.3,1505.2,324.5,-0.7,1.8,2471.389,13.29,0.051,236.0
2023-04-24T07:28:03,42.805,6.029,-0.044,-0.049,-0.062,103.0,103.0,101.0,13.4,1505.2,331.3,-0.7,1.8,2471.348,13.29,0.065,221.9
2023-04-24T07:31:03,42.805,6.029,-0.022,-0.047,-0.038,104.0,103.0,102.0,13.3,1505.2,320.8,-0.7,1.8,2471.381,13.29,0.051,205.1
2023-04-24T07:34:03,42.805,6.029,-0.051,-0.018,-0.048,103.0,104.0,102.0,13.4,1505.2,338.8,-0.8,1.8,2471.37,13.29,0.054,250.6
2023-04-24T07:37:03,42.805,6.029,-0.043,-0.036,-0.058,105.0,103.0,102.0,13.4,1505.2,336.9,-0.7,1.8,2471.355,13.29,0.056,230.1
2023-04-24T07:40:03,42.805,6.029,-0.058,-0.029,-0.038,104.0,104.0,103.0,13.3,1505.2,325.6,-0.8,1.8,2471.375,13.29,0.064,243.4
2023-04-24T07:43:03,42.805,6.029,-0.029,-0.028,-0.024,103.0,103.0,103.0,13.3,1505.2,323.3,-0.7,1.8,2471.359,13.29,0.04,226.0
2023-04-24T07:46:03,42.805,6.029,-0.027,-0.02,-0.043,103.0,104.0,102.0,13.4,1505.2,341.5,-0.8,1.8,2471.411,13.29,0.033,233.5
2023-04-24T07:49:03,42.805,6.029,-0.04,-0.041,-0.058,104.0,103.0,102.0,13.4,1505.2,317.6,-0.7,1.8,2471.355,13.29,0.057,224.3
2023-04-24T07:52:03,42.805,6.029,-0.037,-0.034,-0.022,104.0,103.0,102.0,13.4,1505.2,315.7,-0.8,1.8,2471.375,13.29,0.05,227.4
2023-04-24T07:55:03,42.805,6.029,-0.032,-0.029,-0.02,103.0,103.0,102.0,13.3,1505.2,324.4,-0.8,1.8,2471.399,13.29,0.043,227.8
2023-04-24T07:58:03,42.805,6.029,-0.013,-0.027,-0.028,102.0,104.0,103.0,13.3,1505.2,327.6,-0.8,1.8,2471.336,13.29,0.029,205.7
2023-04-24T08:04:03,42.805,6.029,-0.045,-0.021,-0.035,104.0,103.0,102.0,13.4,1505.2,335.3,-0.7,1.8,2471.416,13.28,0.049,245.0
2023-04-24T08:07:03,42.805,6.029,-0.04,-0.049,-0.058,104.0,103.0,102.0,13.4,1505.2,318.2,-0.8,1.8,2471.412,13.28,0.063,219.2
2023-04-24T08:10:03,42.805,6.029,-0.024,-0.036,-0.053,103.0,105.0,102.0,13.4,1505.2,321.7,-0.8,1.8,2471.427,13.28,0.043,213.7
2023-04-24T08:13:03,42.805,6.029,-0.05,-0.011,-0.017,104.0,103.0,102.0,13.4,1505.2,323.3,-0.8,1.8,2471.414,13.29,0.051,257.6
2023-04-24T08:16:03,42.805,6.029,-0.054,-0.032,-0.06,104.0,102.0,102.0,13.3,1505.2,338.2,-0.8,1.8,2471.401,13.29,0.062,239.3
2023-04-24T08:19:03,42.805,6.029,-0.035,-0.062,-0.015,103.0,102.0,103.0,13.4,1505.2,322.0,-0.8,1.8,2471.411,13.29,0.071,209.4
2023-04-24T08:22:03,42.805,6.029,-0.047,-0.053,-0.046,103.0,103.0,103.0,13.4,1505.2,324.6,-0.8,1.8,2471.417,13.29,0.07,221.6
2023-04-24T08:25:03,42.805,6.029,-0.01,-0.024,0.012,103.0,103.0,102.0,13.4,1505.2,327.8,-0.8,1.8,2471.413,13.29,0.026,202.6
2023-04-24T08:28:03,42.805,6.029,-0.049,-0.034,-0.013,105.0,104.0,103.0,13.4,1505.2,329.0,-0.8,1.8,2471.38,13.29,0.059,235.2
2023-04-24T08:31:03,42.805,6.029,-0.046,-0.012,-0.033,105.0,104.0,102.0,13.4,1505.2,340.9,-0.8,1.8,2471.379,13.29,0.047,255.4
2023-04-24T08:34:03,42.805,6.029,-0.013,-0.056,-0.038,104.0,103.0,102.0,13.4,1505.2,333.9,-0.8,1.8,2471.419,13.29,0.057,193.1
2023-04-24T08:37:03,42.805,6.029,-0.02,-0.016,-0.053,104.0,103.0,102.0,13.4,1505.2,324.2,-0.8,1.8,2471.391,13.29,0.025,231.3
2023-04-24T08:40:03,42.805,6.029,-0.031,-0.026,-0.025,104.0,102.0,102.0,13.4,1505.2,321.9,-0.7,1.8,2471.403,13.29,0.04,230.0
2023-04-24T08:43:03,42.805,6.029,-0.049,-0.037,-0.05,103.0,103.0,101.0,13.3,1505.2,323.8,-0.7,1.8,2471.416,13.29,0.061,232.9
2023-04-24T08:46:03,42.805,6.029,-0.052,-0.026,-0.06,104.0,102.0,102.0,13.4,1505.2,346.2,-0.8,1.8,2471.406,13.29,0.058,243.4
2023-04-24T08:49:03,42.805,6.029,-0.049,-0.023,-0.025,103.0,103.0,102.0,13.4,1505.2,317.6,-0.7,1.8,2471.381,13.29,0.054,244.9
2023-04-24T08:52:03,42.805,6.029,-0.042,-0.024,-0.049,104.0,103.0,103.0,13.4,1505.2,333.9,-0.7,1.8,2471.416,13.29,0.048,240.3
2023-04-24T08:55:03,42.805,6.029,-0.032,-0.004,-0.009,104.0,103.0,102.0,13.4,1505.2,337.1,-0.7,1.8,2471.382,13.29,0.032,262.9
2023-04-24T08:58:03,42.805,6.029,-0.054,0.001,-0.047,103.0,103.0,102.0,13.4,1505.2,332.4,-0.7,1.8,2471.41,13.29,0.054,271.1
2023-04-24T09:04:03,42.805,6.029,-0.045,-0.041,-0.036,103.0,102.0,102.0,13.3,1505.2,325.3,-0.8,1.8,2471.444,13.28,0.06,227.7
2023-04-24T09:07:03,42.805,6.029,-0.055,-0.004,-0.017,103.0,103.0,101.0,13.4,1505.2,323.4,-0.7,1.8,2471.471,13.28,0.055,265.8
2023-04-24T09:10:03,42.805,6.029,-0.07,-0.011,-0.046,103.0,103.0,102.0,13.3,1505.2,342.8,-0.8,1.8,2471.433,13.28,0.07,261.1
2023-04-24T09:13:03,42.805,6.029,-0.021,-0.028,-0.042,103.0,103.0,101.0,13.3,1505.2,318.6,-0.8,1.8,2471.448,13.29,0.035,216.9
2023-04-24T09:16:03,42.805,6.029,-0.04,-0.037,-0.059,103.0,102.0,101.0,13.4,1505.2,315.0,-0.8,1.8,2471.412,13.29,0.054,227.2
2023-04-24T09:19:03,42.805,6.029,-0.042,0.0,-0.035,103.0,103.0,103.0,13.3,1505.2,346.2,-0.8,1.8,2471.432,13.29,0.042,270.0
2023-04-24T09:22:03,42.805,6.029,-0.048,-0.02,-0.042,103.0,103.0,103.0,13.4,1505.2,344.5,-0.8,1.8,2471.401,13.29,0.052,247.4
2023-04-24T09:25:03,42.805,6.029,-0.018,-0.003,-0.031,104.0,103.0,103.0,13.4,1505.2,330.8,-0.8,1.8,2471.422,13.29,0.018,260.5
2023-04-24T09:28:03,42.805,6.029,-0.041,-0.031,-0.026,105.0,102.0,103.0,13.3,1505.2,323.5,-0.8,1.8,2471.391,13.29,0.051,232.9
2023-04-24T09:31:03,42.805,6.029,-0.007,-0.044,-0.039,103.0,103.0,102.0,13.4,1505.2,332.4,-0.8,1.8,2471.416,13.29,0.044,189.0
2023-04-24T09:34:03,42.805,6.029,-0.037,-0.011,-0.068,103.0,103.0,103.0,13.4,1505.2,334.8,-0.8,1.8,2471.384,13.29,0.038,253.4
2023-04-24T09:37:03,42.805,6.029,-0.041,-0.011,-0.035,104.0,103.0,103.0,13.4,1505.2,339.3,-0.7,1.8,2471.396,13.29,0.042,255.0
2023-04-24T09:40:03,42.805,6.029,-0.041,-0.037,-0.055,104.0,102.0,102.0,13.4,1505.2,322.5,-0.8,1.8,2471.415,13.29,0.055,227.9
2023-04-24T09:43:03,42.805,6.029,-0.036,-0.039,-0.033,104.0,103.0,100.0,13.3,1505.2,319.4,-0.8,1.8,2471.414,13.29,0.053,222.7
2023-04-24T09:46:03,42.805,6.029,-0.038,-0.029,-0.039,103.0,102.0,103.0,13.3,1505.2,326.6,-0.8,1.8,2471.435,13.29,0.047,232.7
2023-04-24T09:49:03,42.805,6.029,-0.052,-0.006,-0.023,103.0,102.0,102.0,13.3,1505.2,333.9,-0.8,1.8,2471.388,13.29,0.052,263.4